Abbotsford, British Columbia

2:01 PM PDT on October 18, 2017 (GMT -0700)
Abbotsford

Weather History for CYXX - August, 2013

Change the Weather History Date:

Monday, August 19, 2013

  Actual Average Record
Temperature  
Mean Temperature 64 °F -  
Max Temperature 71 °F 71 °F 94 °F (2016)
Min Temperature 56 °F 49 °F 50 °F (1998)
Degree Days  
Heating Degree Days 2    
Growing Degree Days 14 (Base 50)    
Moisture  
Dew Point 54 °F    
Average Humidity 72    
Maximum Humidity 88    
Minimum Humidity 56    
Precipitation  
Precipitation 0.00 in 0.10 in - ()
Sea Level Pressure  
Sea Level Pressure 30.10 in    
Wind  
Wind Speed 3 mph ()    
Max Wind Speed 10 mph    
Max Gust Speed -    
Visibility 13.5 miles    
Events Rain    
Averages and records for this station are not official NWS values.
T = Trace of Precipitation, MM = Missing Value Source: Averaged Metar Reports

Daily Weather History Graph

Daily Weather History Graph

Search for Another Location

Airport or City:

Trip Planner

Search our weather history database for the weather conditions in past years. The results will help you decide how hot, cold, wet, or windy it might be!

Date:

Astronomy

Aug. 19, 2013 Rise Set
Actual Time 6:07 AM PDT 8:17 PM PDT
Civil Twilight 5:33 AM PDT 8:51 PM PDT
Nautical Twilight 4:50 AM PDT 9:34 PM PDT
Astronomical Twilight 4:01 AM PDT 10:22 PM PDT
Moon 7:11 PM PDT (8/19) 4:30 AM PDT (8/19)
Length of Visible Light 15h 17m
Length of Day
14h 09m
Waxing Gibbous, 98% of the Moon is Illuminated
Aug 19
Waxing Gibbous
Aug 20
Full
Aug 28
Last Quarter
Sep 5
New
Sep 12
First Quarter

Hourly Weather History & Observations

Time (PDT) Temp. Dew Point Humidity Pressure Visibility Wind Dir Wind Speed Gust Speed Precip Events Conditions
12:00 AM 60.8 °F 55.4 °F 82% 30.08 in 10.0 mi NW 3.5 mph - N/A   Mostly Cloudy
1:00 AM 59.0 °F 53.6 °F 82% 30.07 in 10.0 mi West 2.3 mph - N/A   Mostly Cloudy
2:00 AM 59.0 °F 53.6 °F 82% 30.07 in 10.0 mi West 2.3 mph - N/A   Mostly Cloudy
3:00 AM 59.0 °F 53.6 °F 82% 30.06 in 10.0 mi West 2.3 mph - N/A   Scattered Clouds
4:00 AM 57.2 °F 53.6 °F 88% 30.07 in 10.0 mi North 3.5 mph - N/A   Scattered Clouds
5:00 AM 58 °F 53 °F 80% 30.08 in 10 mi NW 3.5 mph - -   Mostly Cloudy
5:00 AM 59.0 °F 53.6 °F 82% 30.07 in 10.0 mi NW 3.5 mph - N/A   Mostly Cloudy
6:00 AM 59.0 °F 53.6 °F 82% 30.08 in 25.0 mi NW 3.5 mph - N/A   Overcast
7:00 AM 60.8 °F 55.4 °F 82% 30.08 in 25.0 mi NNW 2.3 mph - N/A   Mostly Cloudy
8:00 AM 62.6 °F 53.6 °F 72% 30.09 in 25.0 mi West 4.6 mph - N/A   Overcast
9:00 AM 62.6 °F 53.6 °F 72% 30.10 in 25.0 mi Calm Calm - N/A   Overcast
10:00 AM 64.4 °F 53.6 °F 68% 30.11 in 25.0 mi South 3.5 mph - N/A   Overcast
11:00 AM 65 °F 54 °F 58% 30.12 in 19 mi SW 3.5 mph - -   Overcast
11:00 AM 66.2 °F 53.6 °F 64% 30.12 in 20.0 mi SW 6.9 mph - N/A   Overcast
12:00 PM 66.2 °F 53.6 °F 64% 30.13 in 20.0 mi SSW 4.6 mph - N/A   Overcast
1:00 PM 66.2 °F 55.4 °F 68% 30.14 in 15.0 mi South 4.6 mph - N/A   Overcast
1:43 PM 66.2 °F 55.4 °F 68% 30.14 in 10.0 mi SE 4.6 mph - N/A Rain Light Rain Showers
2:00 PM 66.2 °F 55.4 °F 68% 30.14 in 10.0 mi South 5.8 mph - N/A   Mostly Cloudy
3:00 PM 68.0 °F 57.2 °F 68% 30.13 in 15.0 mi SW 5.8 mph - N/A   Mostly Cloudy
4:00 PM 68.0 °F 57.2 °F 68% 30.12 in 20.0 mi South 4.6 mph - N/A   Mostly Cloudy
5:00 PM 70 °F 58 °F 56% 30.11 in 19 mi South 4.6 mph - -   Partly Cloudy
5:00 PM 69.8 °F 57.2 °F 64% 30.11 in 20.0 mi SSE 6.9 mph - N/A   Mostly Cloudy
6:00 PM 69.8 °F 57.2 °F 64% 30.10 in 25.0 mi South 3.5 mph - N/A   Scattered Clouds
7:00 PM 69.8 °F 57.2 °F 64% 30.09 in 25.0 mi SSW 10.4 mph - N/A   Partly Cloudy
8:00 PM 66.2 °F 57.2 °F 73% 30.08 in 25.0 mi SSW 4.6 mph - N/A   Partly Cloudy
9:00 PM 62.6 °F 53.6 °F 72% 30.09 in 15.0 mi WSW 4.6 mph - N/A   Partly Cloudy
10:00 PM 62.6 °F 51.8 °F 68% 30.09 in 10.0 mi WNW 4.6 mph - N/A   Clear
11:00 PM 59 °F 50 °F 64% 30.10 in 10 mi WNW 1.2 mph - -  
11:00 PM 59.0 °F 50.0 °F 72% 30.10 in 10.0 mi WNW 2.3 mph - N/A   Clear